Ana Sayfa
METAR-TAF:

METAR-TAF

Havaalanları :

Nouakchott, Moritanya

Enlem: 18-18-36N, Boylam: 015-58-11W, yükseklik: 3 m

Güncel hava durumu gözlemi

Rapor saat 17:00 UTC de 43 dakika önce yapıldı.
Rüzgar kuzeybatıdan 19 kt
Sıcaklık 26°C
Nem 58%
Basınç 1011 hPa
Görüş mesafesi: 7000 m

METAR: GQNO 051700Z 32019KT 7000 NSC 26/17 Q1011 NOSIG

Saat: 17:43 (17:43 UTC)

Tahmin

Rapor saat 11:00 UTC de 6 saat ve 43 dakika önce yapıldı.
Ayın 05'si saat 12 UTC'den ayın 06'si saat 18 UTC'ye kadar geçerli Tahmin
Rüzgar kuzeydan 16 kt
Görüş mesafesi: 7000 m
Olasılık 30% :
Geçici
ayın 05'si saat 15 UTC'den ayın 05'si saat 19 UTC'ye kadar
Görüş mesafesi: 4000 m
Savrulan kum

TAF: GQNO 051100Z 0512/0618 36016KT 7000 NSC PROB30 TEMPO 0515/0519 4000 BLSA

4.000'den fazla havaalanı için hava durumu gözlemleri ve tahminleri (METAR ve TAF raporları).

Kullanılabilir istasyonlar harita üzerinde sarı ve kırmızı noktalarla gösterilir.

İstasyonun adını görmek için fareyi noktanın üzerinde gezdirin.

Sonrasında hava gözlem ve tahminlerini görmek için tıklayın.

Haritayı değiştirmek için: yaklaştırmak için siyah artı işaretli yeşil düğmeye ve uzaklaştırmak için de eksi işaretli düğmeye hızla tıklayın; bitişik haritalar için yeşil okları kullanın.


METAR-TAF: